Content
SEND FEEDBACK

Daily
Averages
Monthly
Summary
United States of America

GLENVIEW, ILLINOIS


Home > North America > United States > Illinois
Elevation: 653 feet     Latitude: 42 05N     Longitude: 087 50W

WEATHER
 
SELECT A DAY
Number of Records: 194,774;   Date Range: 7/8/95 - 7/20/14
 
SHARE

PRINT THIS DATA

[ ← Previous Day ]
WEATHER ALMANAC - APRIL 26, 2013
[ Next Day → ]
[ °C ]   °F
Weather ElementAverageHighLow
Temperature54.6 °F66 °F (3:52 pm)37.9 °F (4:52 am)
Dewpoint37.3 °F44.1 °F (5:52 pm)28 °F (4:52 am)
Humidity53.4 %73 % (2:52 am)42 % (11:52 am)
Barometer30.31 in30.38 in (6:52 am)30.24 in (4:52 pm)
Wind Speed12 mph19.6 mph (12:52 pm)
Wind Gust27.6 mph (12:52 pm)
Weather ElementAverage
Visibility9.7 mi
Wind DirectionS (177.6 °)

Weather ElementTotal
Precipitation---
Heating Degree Days13.1 (Base 65)
Growing Degree Days2 (Base 50)
Averaged from 25 records on April 26, 2013
WEATHER CONDITIONS BREAKOUT
WIND DIRECTION BREAKOUT
WEATHER BY HOUR - APRIL 26, 2013
[ °C ]   °F
Local TimeTemperatureDewpointHumidityBarometerVisibilityWind DirectionWind SpeedGust SpeedPrecipitationEventsConditions
1:52 AM39.0 °F30.0 °F70 %30.35 in10.0 miCalm
2:52 AM39.0 °F30.9 °F73 %30.34 in10.0 miCalm
3:52 AM39.0 °F30.9 °F73 %30.35 in10.0 miSSE (160°)3.5 mph
4:52 AM37.9 °F28.0 °F68 %30.35 in10.0 miSouth (180°)6.9 mph
5:52 AM37.9 °F28.0 °F68 %30.35 in10.0 miSouth (180°)5.8 mphClear
6:52 AM39.9 °F30.0 °F68 %30.38 in10.0 miSouth (170°)4.6 mphClear
7:52 AM46.9 °F32.0 °F56 %30.35 in10.0 miSouth (180°)10.4 mphClear
8:52 AM50.0 °F33.1 °F52 %30.35 in10.0 miSouth (170°)13.8 mph20.7 mphClear
9:52 AM55.0 °F34.0 °F45 %30.34 in10.0 miSSW (200°)15.0 mphClear
10:32 AM57.2 °F35.6 °F44 %30.32 in1.8 miSouth (180°)18.4 mphHaze
10:47 AM57.2 °F35.6 °F44 %30.32 in10.0 miSSW (200°)17.3 mphClear
10:52 AM57.9 °F36.0 °F44 %30.33 in10.0 miSouth (180°)18.4 mphClear
11:52 AM61.0 °F37.9 °F42 %30.32 in10.0 miSouth (190°)18.4 mph
12:52 PM62.1 °F39.0 °F43 %30.31 in10.0 miSSW (200°)19.6 mph27.6 mphClear
1:52 PM63.0 °F41.0 °F45 %30.29 in10.0 miSSW (200°)16.1 mph25.3 mphClear
2:52 PM64.9 °F43.0 °F45 %30.27 in10.0 miSSW (200°)17.3 mph25.3 mphClear
3:52 PM66.0 °F42.1 °F42 %30.25 in10.0 miSSW (200°)19.6 mph26.5 mphClear
4:52 PM66.0 °F43.0 °F43 %30.24 in10.0 miSSW (200°)19.6 mph27.6 mphPartly Cloudy
5:52 PM64.9 °F44.1 °F47 %30.25 in10.0 miSSW (210°)13.8 mph21.9 mphScattered Clouds
6:52 PM64.0 °F43.0 °F46 %30.26 in10.0 miSSW (200°)15.0 mph21.9 mphScattered Clouds
7:52 PM63.0 °F42.1 °F46 %30.27 in10.0 miSSW (210°)13.8 mph20.7 mphPartly Cloudy
8:52 PM61.0 °F43.0 °F52 %30.29 in10.0 miSSW (210°)12.7 mphPartly Cloudy
9:52 PM59.0 °F43.0 °F55 %30.30 in10.0 miSSW (210°)8.1 mphClear
10:52 PM57.0 °F43.0 °F59 %30.30 in10.0 miSSW (200°)5.8 mph
11:52 PM55.0 °F43.0 °F64 %30.31 in10.0 miSSW (210°)5.8 mph
Hourly data recorded from KPWK, located miles away from Glenview, Illinois







STORIES FROM OUR PARTNERS